Weather Roundup
Issued by NWS Chicago, IL

Home | Current Version | Previous Version | Graphics & Text | Print | Product List | Glossary On
Versions: 1 2 3 4 5 6 7 8 9 10 11 12 13 14 15 16 17 18 19 20 21 22 23 24 25 26 27 28 29 30 31 32 33 34 35 36 37 38 39 40 41 42 43 44 45 46 47 48 49 50
000
NZUS59 KLOT 251306
HRRLOT

CHICAGO AREA WEATHER ROUNDUP
NATIONAL WEATHER SERVICE CHICAGO/ROMEOVILLE IL
700 AM CST THU DEC 25 2014

NOTE: "FAIR" INDICATES FEW OR NO CLOUDS BELOW 12,000 FEET WITH NO
SIGNIFICANT WEATHER AND/OR OBSTRUCTIONS TO VISIBILITY.

* THESE STATIONS ARE NOT UNDER NWS QUALITY CONTROL. THEY ALSO MAY NOT
  REPORT WEATHER SUCH AS PRECIPITATION OR FOG.

ILZ005-006-012>014-019>023-251400-
NORTHEAST ILLINOIS

CITY           SKY/WX    TMP DP  RH WIND       PRES   REMARKS
OHARE          CLOUDY    34  28  79 SW15      29.85R WCI  24
MIDWAY         CLOUDY    35  29  78 SW12G25   29.87R WCI  27
AURORA         CLOUDY    34  28  79 W13       29.87R WCI  25
LANSING*       CLOUDY    34  30  85 W13G18    29.88R WCI  25
JOLIET*        CLOUDY    33  29  85 SW6       29.89R WCI  28
WAUKEGAN       CLOUDY    33  27  78 SW9G22    29.82R WCI  25
DUPAGE AIRPORT CLOUDY    33  28  81 SW17      29.85R WCI  22
WHEELING       CLOUDY    34  27  75 SW14G20   29.86R WCI  25
KANKAKEE*      CLOUDY    34  31  87 SW10      29.92R WCI  26
MORRIS*        CLOUDY    34  31  90 W12       29.89R WCI  25
LEWIS AIRPORT* CLOUDY    33  30  86 W10       29.88R WCI  25
NORTHERLY IS     N/A     35  28  76 W12         N/A  WCI  27
$$

WIZ051-052-058>065-066-070>072-251400-
SOUTHEAST WISCONSIN

CITY           SKY/WX    TMP DP  RH WIND       PRES   REMARKS
MILWAUKEE      CLOUDY    35  27  72 SW8       29.80R WCI  29
KENOSHA*       CLOUDY    34  28  79 W13       29.82R WCI  25
RACINE*        CLOUDY    34  27  75 W15G23    29.82R WCI  24
BURLINGTON     CLOUDY    32  28  84 SW13      29.81R WCI  22
WAUKESHA       CLOUDY    30  27  86 SW10      29.79R WCI  21
WEST BEND      CLOUDY    32  28  86 SW10G16   29.76R WCI  24
$$

INZ001>003-010>013-019-020-251400-
NORTHWEST INDIANA

CITY           SKY/WX    TMP DP  RH WIND       PRES   REMARKS
GARY*          CLOUDY    36  27  69 W8        29.88R
MICHIGAN CITY* NOT AVBL
RENSSELAER*    NOT AVBL
VALPARAISO     CLOUDY    34  28  79 SW13      29.90R WCI  25
$$

LMZ740>746-251400-
SOUTHERN LAKE MICHIGAN

STATION/POSITION TIME  SKY/WX   TEMP WIND        PRES    VSBY
                                AIR  DIR/SP/G
                 (UTC)          (F)  (DEG/KT/KT) (MB)    (MI)
HARRISON CRIB    1300            35  240/ 13/ 19   N/A
BURNHAM HARBOR   1300            35  240/ 11/ 16   N/A
CALUMET HARBOR   1300            35  220/  8/ 14 1010.2S
BURNS HARBOR     NOT AVBL
MICHIGAN CITY    1300            35  220/ 24/ 28   N/A
$$

ABBREVIATIONS USED IN REMARKS
   TC - TEMPERATURE IN CELSIUS
  WCI - WIND CHILL INDEX
   HX - HEAT INDEX
  VSB - VISIBILITY
$$



USA.gov is the U.S. government's official web portal to all federal, state and local government web resources and services.